| time (UTC) | temp F | wind direction | speed knots | gust knots | rain 1hr in | rain 24hr in | rain mn in | humidity % | barometer mb |
| 20260503053252 | 58 | 217 | 0.0 | 2.6 | 0.00 | 0.00 | 0.00 | 72 | 1018.4 |
| 20260503052747 | 58 | 192 | 0.0 | 2.6 | 0.00 | 0.00 | 0.00 | 71 | 1018.3 |
| 20260503052252 | 58 | 185 | 0.0 | 3.5 | 0.00 | 0.00 | 0.00 | 72 | 1018.2 |
| 20260503052004 | 58 | 169 | 0.0 | 3.5 | 0.00 | 0.00 | 0.00 | 72 | 1018.2 |
| 20260503051248 | 58 | 339 | 0.9 | 2.6 | 0.00 | 0.00 | 0.00 | 72 | 1018.1 |
| 20260503050252 | 58 | 218 | 1.7 | 3.5 | 0.00 | 0.00 | 0.00 | 73 | 1018.1 |
| 20260503044747 | 57 | 228 | 1.7 | 3.5 | 0.00 | 0.00 | 0.00 | 73 | 1018.2 |
| 20260503044507 | 57 | 17 | 3.5 | 5.2 | 0.00 | 0.00 | 0.00 | 73 | 1018.3 |
| 20260503043747 | 57 | 224 | 0.0 | 5.2 | 0.00 | 0.00 | 0.00 | 73 | 1018.4 |
| 20260503043248 | 56 | 296 | 1.7 | 3.5 | 0.00 | 0.00 | 0.00 | 73 | 1018.4 |
| 20260503042747 | 56 | 293 | 1.7 | 3.5 | 0.00 | 0.00 | 0.00 | 74 | 1018.6 |
| 20260503042249 | 56 | 262 | 1.7 | 3.5 | 0.00 | 0.00 | 0.00 | 74 | 1018.3 |
| 20260503041747 | 56 | 202 | 1.7 | 3.5 | 0.00 | 0.00 | 0.00 | 74 | 1018.3 |
| 20260503041248 | 56 | 203 | 2.6 | 5.2 | 0.00 | 0.00 | 0.00 | 75 | 1018.2 |
| 20260503040746 | 56 | 259 | 0.9 | 5.2 | 0.00 | 0.00 | 0.00 | 75 | 1018.6 |
| 20260503040249 | 56 | 278 | 1.7 | 5.2 | 0.00 | 0.00 | 0.00 | 74 | 1018.4 |
| 20260503035749 | 56 | 224 | 2.6 | 4.3 | 0.00 | 0.00 | 0.00 | 74 | 1018.2 |
| 20260503035251 | 56 | 299 | 3.5 | 3.5 | 0.00 | 0.00 | 0.00 | 75 | 1018.3 |
| 20260503034746 | 56 | 178 | 0.9 | 3.5 | 0.00 | 0.00 | 0.00 | 75 | 1018.6 |
| 20260503034248 | 56 | 260 | 0.9 | 3.5 | 0.00 | 0.00 | 0.00 | 75 | 1018.4 |
| 20260503034006 | 55 | 303 | 1.7 | 3.5 | 0.00 | 0.00 | 0.00 | 76 | 1018.7 |
| 20260503033248 | 56 | 318 | 0.9 | 4.3 | 0.00 | 0.00 | 0.00 | 75 | 1018.6 |
| 20260503032750 | 56 | 189 | 1.7 | 4.3 | 0.00 | 0.00 | 0.00 | 73 | 1018.6 |
| 20260503032252 | 56 | 174 | 2.6 | 3.5 | 0.00 | 0.00 | 0.00 | 75 | 1018.4 |
| 20260503032008 | 56 | 226 | 2.6 | 3.5 | 0.00 | 0.00 | 0.00 | 75 | 1018.4 |
| 20260503031249 | 56 | 272 | 1.7 | 3.5 | 0.00 | 0.00 | 0.00 | 75 | 1018.3 |
| 20260503030248 | 56 | 241 | 1.7 | 5.2 | 0.00 | 0.00 | 0.00 | 74 | 1018.3 |
| 20260503025747 | 56 | 267 | 1.7 | 5.2 | 0.00 | 0.00 | 0.00 | 74 | 1018.4 |
| 20260503025008 | 55 | 238 | 1.7 | 4.3 | 0.00 | 0.00 | 0.00 | 74 | 1018.2 |
| 20260503024247 | 55 | 262 | 0.9 | 3.5 | 0.00 | 0.00 | 0.00 | 75 | 1018.4 |
| 20260503023249 | 55 | 208 | 3.5 | 4.3 | 0.00 | 0.00 | 0.00 | 75 | 1018.7 |
| 20260503022248 | 55 | 217 | 1.7 | 4.3 | 0.00 | 0.00 | 0.00 | 75 | 1018.3 |
| 20260503022014 | 55 | 24 | 1.7 | 4.3 | 0.00 | 0.00 | 0.00 | 74 | 1018.4 |
| 20260503021305 | 56 | 187 | 3.5 | 4.3 | 0.00 | 0.00 | 0.00 | 74 | 1018.6 |
| 20260503020015 | 56 | 250 | 0.9 | 7.0 | 0.00 | 0.00 | 0.00 | 73 | 1018.8 |
| 20260503015251 | 56 | 210 | 1.7 | 7.0 | 0.00 | 0.00 | 0.00 | 73 | 1018.7 |
| 20260503014747 | 56 | 240 | 2.6 | 5.2 | 0.00 | 0.00 | 0.00 | 73 | 1018.6 |
| 20260503013750 | 56 | 280 | 3.5 | 6.1 | 0.00 | 0.00 | 0.00 | 73 | 1018.8 |
| 20260503013511 | 56 | 275 | 3.5 | 4.3 | 0.00 | 0.00 | 0.00 | 73 | 1018.8 |
| 20260503012746 | 56 | 269 | 1.7 | 4.3 | 0.00 | 0.00 | 0.00 | 73 | 1018.7 |
| 20260503011506 | 56 | 336 | 3.5 | 3.5 | 0.00 | 0.00 | 0.00 | 72 | 1018.6 |
| 20260503005749 | 56 | 309 | 0.9 | 5.2 | 0.00 | 0.00 | 0.00 | 72 | 1018.9 |
| 20260503005248 | 56 | 209 | 2.6 | 3.5 | 0.00 | 0.00 | 0.00 | 73 | 1019.0 |
| 20260503005007 | 56 | 293 | 0.0 | 3.5 | 0.00 | 0.00 | 0.00 | 73 | 1018.8 |
| 20260503004513 | 56 | 251 | 0.9 | 3.5 | 0.00 | 0.00 | 0.00 | 73 | 1019.2 |
| 20260503004006 | 56 | 309 | 0.0 | 3.5 | 0.00 | 0.00 | 0.00 | 73 | 1019.1 |
| 20260503003251 | 56 | 295 | 0.0 | 3.5 | 0.00 | 0.00 | 0.00 | 72 | 1019.3 |
| 20260503002747 | 56 | 219 | 1.7 | 3.5 | 0.00 | 0.00 | 0.00 | 72 | 1019.3 |
| 20260503002251 | 56 | 269 | 0.9 | 3.5 | 0.00 | 0.00 | 0.00 | 71 | 1019.4 |
| 20260503001517 | 57 | 279 | 1.7 | 4.3 | 0.00 | 0.00 | 0.00 | 70 | 1019.5 |
| 20260503000746 | 57 | 228 | 2.6 | 5.2 | 0.00 | 0.00 | 0.00 | 71 | 1019.4 |
| 20260503000515 | 57 | 232 | 2.6 | 5.2 | 0.00 | 0.00 | 0.00 | 71 | 1019.5 |
| 20260502235249 | 57 | 305 | 1.7 | 4.3 | 0.00 | 0.00 | 0.00 | 71 | 1019.7 |
| 20260502234748 | 57 | 212 | 1.7 | 4.3 | 0.00 | 0.00 | 0.00 | 71 | 1019.5 |
| 20260502234252 | 57 | 178 | 1.7 | 4.3 | 0.00 | 0.00 | 0.00 | 71 | 1019.9 |
| 20260502233751 | 57 | 248 | 2.6 | 4.3 | 0.00 | 0.00 | 0.00 | 70 | 1019.7 |
| 20260502233248 | 57 | 264 | 0.9 | 4.3 | 0.00 | 0.00 | 0.00 | 70 | 1019.8 |
| 20260502232747 | 57 | 217 | 0.0 | 5.2 | 0.00 | 0.00 | 0.00 | 70 | 1019.7 |
| 20260502232248 | 57 | 142 | 0.0 | 5.2 | 0.00 | 0.00 | 0.00 | 70 | 1019.8 |
| 20260502232006 | 57 | 197 | 0.0 | 5.2 | 0.00 | 0.00 | 0.00 | 70 | 1020.0 |
| 20260502231248 | 57 | 166 | 0.9 | 5.2 | 0.00 | 0.00 | 0.00 | 69 | 1019.7 |
| 20260502230747 | 57 | 253 | 2.6 | 4.3 | 0.00 | 0.00 | 0.00 | 69 | 1019.8 |
| 20260502230515 | 57 | 193 | 1.7 | 5.2 | 0.00 | 0.00 | 0.00 | 69 | 1019.8 |
| 20260502225746 | 58 | 236 | 2.6 | 5.2 | 0.00 | 0.00 | 0.00 | 69 | 1019.9 |
| 20260502225251 | 58 | 330 | 2.6 | 4.3 | 0.00 | 0.00 | 0.00 | 69 | 1019.7 |
| 20260502224747 | 57 | 221 | 1.7 | 3.5 | 0.00 | 0.00 | 0.00 | 70 | 1019.9 |
| 20260502224249 | 57 | 312 | 3.5 | 4.3 | 0.00 | 0.00 | 0.00 | 69 | 1019.9 |
| 20260502223750 | 57 | 324 | 1.7 | 4.3 | 0.00 | 0.00 | 0.00 | 69 | 1019.9 |
| 20260502223251 | 57 | 308 | 2.6 | 4.3 | 0.00 | 0.00 | 0.00 | 69 | 1019.9 |
| 20260502222747 | 58 | 308 | 2.6 | 4.3 | 0.00 | 0.00 | 0.00 | 68 | 1019.8 |
| 20260502222252 | 58 | 216 | 1.7 | 3.5 | 0.00 | 0.00 | 0.00 | 68 | 1019.9 |
| 20260502221512 | 58 | 215 | 0.9 | 4.3 | 0.00 | 0.00 | 0.00 | 67 | 1020.1 |
| 20260502220746 | 58 | 284 | 3.5 | 5.2 | 0.00 | 0.00 | 0.00 | 66 | 1019.9 |
| 20260502220248 | 58 | 277 | 1.7 | 5.2 | 0.00 | 0.00 | 0.00 | 66 | 1019.9 |
| 20260502215746 | 58 | 344 | 3.5 | 3.5 | 0.00 | 0.00 | 0.00 | 67 | 1020.2 |
| 20260502215248 | 58 | 253 | 2.6 | 3.5 | 0.00 | 0.00 | 0.00 | 67 | 1020.0 |
| 20260502214248 | 58 | 327 | 1.7 | 4.3 | 0.00 | 0.00 | 0.00 | 66 | 1020.1 |
| 20260502213750 | 58 | 310 | 0.0 | 5.2 | 0.00 | 0.00 | 0.00 | 66 | 1019.9 |
| 20260502213248 | 59 | 216 | 2.6 | 5.2 | 0.00 | 0.00 | 0.00 | 65 | 1019.9 |
| 20260502212249 | 58 | 310 | 1.7 | 4.3 | 0.00 | 0.00 | 0.00 | 65 | 1019.7 |
| 20260502211749 | 58 | 290 | 0.9 | 4.3 | 0.00 | 0.00 | 0.00 | 65 | 1019.8 |
| 20260502211248 | 59 | 240 | 2.6 | 4.3 | 0.00 | 0.00 | 0.00 | 65 | 1019.9 |
| 20260502210251 | 59 | 312 | 4.3 | 4.3 | 0.00 | 0.00 | 0.00 | 64 | 1020.0 |
| 20260502205749 | 59 | 313 | 0.9 | 4.3 | 0.00 | 0.00 | 0.00 | 64 | 1019.8 |
| 20260502204747 | 59 | 284 | 0.9 | 3.5 | 0.00 | 0.00 | 0.00 | 65 | 1019.8 |
| 20260502204248 | 59 | 304 | 1.7 | 3.5 | 0.00 | 0.00 | 0.00 | 64 | 1020.0 |
| 20260502203746 | 59 | 285 | 2.6 | 3.5 | 0.00 | 0.00 | 0.00 | 63 | 1020.0 |
| 20260502203515 | 59 | 279 | 1.7 | 4.3 | 0.00 | 0.00 | 0.00 | 63 | 1020.1 |
| 20260502202748 | 60 | 277 | 1.7 | 4.3 | 0.00 | 0.00 | 0.00 | 62 | 1020.2 |
| 20260502201746 | 60 | 291 | 1.7 | 4.3 | 0.00 | 0.00 | 0.00 | 61 | 1020.1 |
| 20260502201511 | 60 | 310 | 0.9 | 4.3 | 0.00 | 0.00 | 0.00 | 60 | 1020.1 |
| 20260502201011 | 60 | 299 | 1.7 | 6.1 | 0.00 | 0.00 | 0.00 | 60 | 1020.0 |
| 20260502200247 | 60 | 291 | 3.5 | 6.1 | 0.00 | 0.00 | 0.00 | 60 | 1019.9 |
| 20260502195746 | 61 | 292 | 3.5 | 5.2 | 0.00 | 0.00 | 0.00 | 60 | 1020.0 |
| 20260502195251 | 61 | 230 | 2.6 | 5.2 | 0.00 | 0.00 | 0.00 | 59 | 1019.7 |
| 20260502194247 | 61 | 292 | 3.5 | 5.2 | 0.00 | 0.00 | 0.00 | 59 | 1019.8 |
| 20260502193749 | 61 | 301 | 0.9 | 4.3 | 0.00 | 0.00 | 0.00 | 60 | 1019.7 |
| 20260502193508 | 62 | 265 | 0.9 | 3.5 | 0.00 | 0.00 | 0.00 | 58 | 1019.7 |
| 20260502193006 | 62 | 238 | 1.7 | 3.5 | 0.00 | 0.00 | 0.00 | 58 | 1019.7 |
| 20260502192247 | 62 | 269 | 1.7 | 4.3 | 0.00 | 0.00 | 0.00 | 57 | 1019.5 |
| 20260502191748 | 62 | 319 | 2.6 | 5.2 | 0.00 | 0.00 | 0.00 | 58 | 1019.6 |
| 20260502191511 | 62 | 306 | 2.6 | 5.2 | 0.00 | 0.00 | 0.00 | 57 | 1019.7 |
| 20260502191008 | 63 | 0 | 2.6 | 6.1 | 0.00 | 0.00 | 0.00 | 57 | 1019.5 |
| 20260502185746 | 62 | 276 | 1.7 | 3.5 | 0.00 | 0.00 | 0.00 | 57 | 1019.5 |
| 20260502185247 | 62 | 295 | 0.9 | 3.5 | 0.00 | 0.00 | 0.00 | 57 | 1019.5 |
| 20260502184746 | 63 | 268 | 2.6 | 3.5 | 0.00 | 0.00 | 0.00 | 57 | 1019.3 |
| 20260502184247 | 63 | 296 | 2.6 | 3.5 | 0.00 | 0.00 | 0.00 | 56 | 1019.5 |
| 20260502183745 | 63 | 320 | 1.7 | 3.5 | 0.00 | 0.00 | 0.00 | 57 | 1019.4 |
| 20260502183248 | 63 | 330 | 3.5 | 3.5 | 0.00 | 0.00 | 0.00 | 56 | 1019.3 |
| 20260502183010 | 64 | 324 | 2.6 | 3.5 | 0.00 | 0.00 | 0.00 | 55 | 1019.5 |
| 20260502182247 | 64 | 314 | 2.6 | 3.5 | 0.00 | 0.00 | 0.00 | 57 | 1019.4 |
| 20260502181746 | 64 | 294 | 1.7 | 3.5 | 0.00 | 0.00 | 0.00 | 56 | 1019.2 |
| 20260502181247 | 64 | 311 | 2.6 | 3.5 | 0.00 | 0.00 | 0.00 | 55 | 1019.5 |
| 20260502180746 | 64 | 324 | 2.6 | 3.5 | 0.00 | 0.00 | 0.00 | 54 | 1019.3 |
| 20260502170505 | 67 | 305 | 0.0 | 2.6 | 0.00 | 0.00 | 0.00 | 50 | 1019.3 |
| 20260502164248 | 68 | 197 | 2.6 | 3.5 | 0.00 | 0.00 | 0.00 | 49 | 1019.4 |
| 20260502164008 | 68 | 210 | 1.7 | 3.5 | 0.00 | 0.00 | 0.00 | 47 | 1019.3 |
| 20260502163248 | 68 | 171 | 1.7 | 3.5 | 0.00 | 0.00 | 0.00 | 49 | 1019.5 |
| 20260502162247 | 69 | 223 | 1.7 | 5.2 | 0.00 | 0.00 | 0.00 | 47 | 1019.6 |
| 20260502160746 | 69 | 184 | 2.6 | 5.2 | 0.00 | 0.00 | 0.00 | 48 | 1019.5 |
| 20260502160511 | 69 | 194 | 1.7 | 5.2 | 0.00 | 0.00 | 0.00 | 50 | 1019.6 |
| 20260502152005 | 70 | 167 | 1.7 | 5.2 | 0.00 | 0.00 | 0.00 | 48 | 1019.9 |
| 20260502151508 | 70 | 194 | 0.9 | 5.2 | 0.00 | 0.00 | 0.00 | 47 | 1020.0 |
| 20260502151008 | 70 | 158 | 2.6 | 5.2 | 0.00 | 0.00 | 0.00 | 45 | 1020.2 |
| 20260502150250 | 70 | 180 | 2.6 | 5.2 | 0.00 | 0.00 | 0.00 | 44 | 1020.0 |
| 20260502130512 | 70 | 178 | 3.5 | 6.1 | 0.00 | 0.00 | 0.00 | 45 | 1021.8 |
| 20260502123250 | 70 | 160 | 1.7 | 7.0 | 0.00 | 0.00 | 0.00 | 45 | 1022.2 |
| 20260502122247 | 70 | 194 | 1.7 | 7.8 | 0.00 | 0.00 | 0.00 | 45 | 1022.2 |
| 20260502122009 | 70 | 224 | 2.6 | 6.1 | 0.00 | 0.00 | 0.00 | 47 | 1022.3 |
| 20260502121252 | 71 | 157 | 3.5 | 5.2 | 0.00 | 0.00 | 0.00 | 46 | 1022.4 |
| 20260502121009 | 69 | 189 | 2.6 | 6.1 | 0.00 | 0.00 | 0.00 | 45 | 1022.6 |
| 20260502120250 | 70 | 178 | 2.6 | 7.8 | 0.00 | 0.00 | 0.00 | 46 | 1022.5 |
| 20260502115748 | 70 | 169 | 2.6 | 7.8 | 0.00 | 0.00 | 0.00 | 47 | 1022.5 |
| 20260502115247 | 69 | 165 | 3.5 | 7.0 | 0.00 | 0.00 | 0.00 | 46 | 1022.6 |
| 20260502114010 | 69 | 212 | 5.2 | 7.0 | 0.00 | 0.00 | 0.00 | 49 | 1023.0 |
| 20260502113250 | 69 | 158 | 5.2 | 8.7 | 0.00 | 0.00 | 0.00 | 48 | 1023.1 |
| 20260502113009 | 69 | 155 | 7.0 | 8.7 | 0.00 | 0.00 | 0.00 | 50 | 1023.1 |
| 20260502112513 | 69 | 176 | 2.6 | 7.8 | 0.00 | 0.00 | 0.00 | 47 | 1023.1 |
| 20260502112005 | 70 | 182 | 3.5 | 7.8 | 0.00 | 0.00 | 0.00 | 47 | 1023.4 |
| 20260502111009 | 69 | 159 | 3.5 | 7.8 | 0.00 | 0.00 | 0.00 | 50 | 1023.3 |
| 20260502110510 | 69 | 179 | 2.6 | 7.0 | 0.00 | 0.00 | 0.00 | 47 | 1023.7 |
| 20260502105745 | 68 | 165 | 4.3 | 9.6 | 0.00 | 0.00 | 0.00 | 50 | 1023.6 |
| 20260502104745 | 69 | 180 | 4.3 | 7.0 | 0.00 | 0.00 | 0.00 | 49 | 1023.6 |
| 20260502103747 | 68 | 62 | 0.9 | 8.7 | 0.00 | 0.00 | 0.00 | 50 | 1023.8 |
| 20260502103250 | 68 | 195 | 4.3 | 8.7 | 0.00 | 0.00 | 0.00 | 49 | 1023.9 |
| 20260502102746 | 69 | 166 | 2.6 | 7.8 | 0.00 | 0.00 | 0.00 | 47 | 1024.0 |
| 20260502102506 | 68 | 158 | 5.2 | 7.8 | 0.00 | 0.00 | 0.00 | 46 | 1024.1 |
| 20260502101746 | 69 | 151 | 4.3 | 7.8 | 0.00 | 0.00 | 0.00 | 49 | 1024.2 |
| 20260502101248 | 68 | 174 | 3.5 | 6.1 | 0.00 | 0.00 | 0.00 | 49 | 1024.3 |
| 20260502100749 | 67 | 155 | 5.2 | 7.0 | 0.00 | 0.00 | 0.00 | 49 | 1024.4 |
| 20260502100247 | 66 | 180 | 3.5 | 7.0 | 0.00 | 0.00 | 0.00 | 50 | 1024.3 |
| 20260502091250 | 65 | 158 | 2.6 | 5.2 | 0.00 | 0.00 | 0.00 | 51 | 1025.1 |
| 20260502091004 | 65 | 178 | 5.2 | 5.2 | 0.00 | 0.00 | 0.00 | 50 | 1025.1 |
| 20260502090247 | 64 | 185 | 3.5 | 7.0 | 0.00 | 0.00 | 0.00 | 53 | 1025.1 |
| 20260502071250 | 61 | 188 | 1.7 | 5.2 | 0.00 | 0.00 | 0.00 | 69 | 1025.3 |
| 20260502070510 | 62 | 269 | 0.0 | 4.3 | 0.00 | 0.00 | 0.00 | 69 | 1025.2 |
| 20260502070009 | 60 | 198 | 1.7 | 4.3 | 0.00 | 0.00 | 0.00 | 70 | 1025.5 |
| 20260502065518 | 61 | 166 | 1.7 | 3.5 | 0.00 | 0.00 | 0.00 | 70 | 1025.8 |
| 20260502064745 | 61 | 161 | 1.7 | 2.6 | 0.00 | 0.00 | 0.00 | 70 | 1025.6 |
| 20260502064248 | 59 | 192 | 0.9 | 4.3 | 0.00 | 0.00 | 0.00 | 73 | 1025.6 |
| 20260502063746 | 58 | 149 | 1.7 | 4.3 | 0.00 | 0.00 | 0.00 | 74 | 1025.3 |
| 20260502062746 | 58 | 165 | 0.9 | 4.3 | 0.00 | 0.00 | 0.00 | 75 | 1025.4 |
| 20260502062508 | 58 | 195 | 1.7 | 3.5 | 0.00 | 0.00 | 0.00 | 75 | 1025.5 |
| 20260502061248 | 58 | 186 | 2.6 | 2.6 | 0.00 | 0.00 | 0.00 | 75 | 1025.4 |
| 20260502061009 | 56 | 184 | 0.0 | 2.6 | 0.00 | 0.00 | 0.00 | 76 | 1025.4 |
| 20260502060247 | 57 | 132 | 0.0 | 2.6 | 0.00 | 0.00 | 0.00 | 76 | 1025.5 |
| 20260502060012 | 56 | 149 | 0.9 | 3.5 | 0.00 | 0.00 | 0.00 | 77 | 1025.4 |
| 20260502055248 | 56 | 240 | 0.0 | 3.5 | 0.00 | 0.00 | 0.00 | 77 | 1025.4 |
| 20260502054746 | 56 | 188 | 0.9 | 3.5 | 0.00 | 0.00 | 0.00 | 76 | 1025.8 |
| 20260502054250 | 57 | 140 | 1.7 | 2.6 | 0.00 | 0.00 | 0.00 | 72 | 1025.6 |
| 20260502053745 | 57 | 174 | 0.9 | 4.3 | 0.00 | 0.00 | 0.00 | 71 | 1025.4 |